period_start,C,m1,H,J0,J1,J2,J3,J4,J5,JA,JB,JC,JD,JJ,JK,JN,#
2017-10-29 00:02:46,0.02,0.84,0.00,17.76,21.24,24.30,14.14,46.13,1015.15,2052.84,3220.32,2899.14,3289.70,600.05,605.95,25.91,0000 0000 0000 0000 000000
2017-10-29 00:07:48,0.02,0.84,0.00,17.76,21.24,24.28,14.19,46.20,1015.15,2052.92,3220.00,2899.01,3289.10,599.93,605.80,25.96,0000 0000 0000 0000 000000
2017-10-29 00:12:49,0.00,0.84,0.00,17.77,21.23,24.30,14.15,46.06,1015.16,2052.94,3219.76,2898.99,3289.00,599.79,605.62,26.01,0000 0000 0000 0000 000000
2017-10-29 00:17:50,0.01,0.84,0.00,17.77,21.22,24.27,14.19,46.11,1015.15,2052.92,3219.07,2898.93,3288.93,599.76,605.76,26.06,0000 0000 0000 0000 000000
2017-10-29 00:22:51,0.04,0.84,0.00,17.78,21.22,24.26,14.18,46.09,1015.16,2052.93,3218.90,2898.38,3288.27,599.91,605.78,26.11,0000 0000 0000 0000 000000
2017-10-29 00:27:52,0.02,0.84,0.00,17.80,21.22,24.27,14.20,46.16,1015.15,2052.95,3218.16,2898.02,3288.01,600.04,605.90,26.16,0000 0000 0000 0000 000000
2017-10-29 00:32:54,0.00,0.84,0.00,17.81,21.22,24.24,14.16,46.18,1015.15,2052.97,3218.00,2897.99,3287.99,600.05,605.83,26.21,0000 0000 0000 0000 000000
2017-10-29 00:37:55,0.02,0.85,0.00,17.82,21.22,24.25,14.16,46.26,1015.15,2052.96,3217.53,2897.97,3287.45,600.09,605.82,26.26,0000 0000 0000 0000 000000
2017-10-29 00:42:56,0.02,0.85,0.00,17.84,21.22,24.26,14.05,46.11,1015.15,2052.97,3217.01,2897.67,3287.01,599.67,605.35,26.31,0000 0000 0000 0000 000000
2017-10-29 00:47:58,0.01,0.85,0.00,17.85,21.22,24.24,14.16,46.18,1015.15,2052.96,3216.82,2897.11,3286.99,599.95,605.65,26.36,0000 0000 0000 0000 000000
2017-10-29 00:52:59,0.02,0.85,0.00,17.87,21.22,24.25,14.14,46.07,1015.15,2052.97,3216.08,2897.01,3286.49,599.87,605.65,26.41,0000 0000 0000 0000 000000
2017-10-29 00:58:00,0.00,0.85,0.00,17.88,21.24,24.26,14.10,46.14,1015.15,2052.95,3215.88,2896.97,3286.01,599.83,605.34,26.46,0000 0000 0000 0000 000000
2017-10-29 01:03:02,0.02,0.85,0.00,17.91,21.24,24.30,14.17,46.02,1015.15,2052.87,3215.12,2896.56,3285.86,600.06,605.60,26.51,0000 0000 0000 0000 000000
2017-10-29 01:08:03,0.03,0.85,0.00,17.92,21.24,24.29,14.28,46.06,1015.15,2052.85,3214.98,2896.05,3285.13,600.06,605.54,26.56,0000 0000 0000 0000 000000
2017-10-29 01:13:04,0.00,0.85,0.00,17.91,21.25,24.31,14.16,46.11,1015.15,2052.80,3214.20,2896.00,3285.00,599.63,605.33,26.61,0000 0000 0000 0000 000000
2017-10-29 01:18:05,0.02,0.85,0.00,17.92,21.27,24.33,14.06,46.20,1015.15,2052.65,3213.96,2895.96,3284.54,599.83,605.50,26.66,0000 0000 0000 0000 000000
2017-10-29 01:23:07,-0.01,0.85,0.00,17.93,21.27,24.30,14.26,46.24,1015.15,2052.36,3213.18,2895.30,3284.02,600.22,605.77,26.71,0000 0000 0000 0000 000000
2017-10-29 01:28:08,0.01,0.85,0.00,17.95,21.27,24.33,14.24,46.15,1015.14,2052.33,3212.98,2895.02,3283.96,600.16,605.66,26.76,0000 0000 0000 0000 000000
2017-10-29 01:33:09,0.02,0.85,0.00,17.96,21.28,24.34,14.07,46.26,1015.10,2052.20,3212.24,2894.99,3283.34,599.86,605.45,26.81,0000 0000 0000 0000 000000
2017-10-29 01:38:10,-0.00,0.85,0.00,17.95,21.29,24.33,14.14,46.32,1015.00,2052.15,3211.99,2894.90,3283.00,600.09,605.43,26.86,0000 0000 0000 0000 000000
2017-10-29 01:43:11,0.05,0.86,0.00,17.94,21.29,24.34,14.17,46.23,1015.05,2052.27,3211.39,2894.26,3282.89,599.95,605.42,26.91,0000 0000 0000 0000 000000
2017-10-29 01:48:13,0.01,0.86,0.00,17.94,21.29,24.35,14.22,46.22,1015.13,2052.10,3210.99,2894.01,3282.14,600.27,605.64,26.96,0000 0000 0000 0000 000000
2017-10-29 01:53:14,0.01,0.86,0.00,17.93,21.29,24.36,14.19,46.26,1015.09,2052.06,3210.30,2893.98,3281.99,600.29,605.79,27.01,0000 0000 0000 0000 000000
2017-10-29 01:58:16,0.01,0.86,0.00,17.91,21.29,24.35,14.13,46.23,1015.02,2052.05,3209.99,2893.83,3281.78,599.78,605.39,27.06,0000 0000 0000 0000 000000
2017-10-29 02:03:17,0.04,0.86,0.00,17.91,21.29,24.39,14.07,46.26,1014.81,2052.05,3209.25,2893.11,3281.06,600.01,605.40,27.11,0000 0000 0000 0000 000000
2017-10-29 02:08:18,0.00,0.86,0.00,17.89,21.30,24.40,14.07,46.21,1014.91,2052.05,3208.98,2893.00,3280.99,599.56,605.01,27.16,0000 0000 0000 0000 000000
2017-10-29 02:13:19,0.02,0.86,0.00,17.89,21.30,24.36,14.22,46.27,1015.08,2052.03,3208.36,2892.98,3280.55,600.18,605.60,27.21,0000 0000 0000 0000 000000
2017-10-29 02:18:20,0.02,0.86,0.00,17.89,21.30,24.35,14.23,46.23,1015.16,2052.02,3207.99,2892.65,3280.02,600.10,605.60,27.26,0000 0000 0000 0000 000000
2017-10-29 02:23:21,0.02,0.86,0.00,17.86,21.29,24.39,14.12,46.10,1015.25,2052.02,3207.39,2892.07,3279.99,599.62,605.40,27.31,0000 0000 0000 0000 000000
2017-10-29 02:28:23,0.01,0.86,0.00,17.87,21.29,24.34,14.16,45.98,1015.30,2052.02,3207.01,2892.00,3279.52,599.89,605.60,27.36,0000 0000 0000 0000 000000
2017-10-29 02:33:24,0.01,0.87,0.00,17.90,21.30,24.36,14.13,45.92,1015.61,2052.05,3206.79,2892.00,3279.03,600.04,605.87,27.41,0000 0000 0000 0000 000000
2017-10-29 02:38:25,0.00,0.87,0.00,17.93,21.30,24.35,14.15,45.86,1015.64,2052.03,3206.07,2891.93,3278.99,599.63,605.51,27.46,0000 0000 0000 0000 000000
2017-10-29 02:43:26,0.03,0.87,0.00,17.96,21.32,24.36,14.12,46.06,1015.64,2052.02,3205.92,2891.28,3278.40,599.81,605.59,27.51,0000 0000 0000 0000 000000
2017-10-29 02:48:28,0.01,0.87,0.00,17.99,21.32,24.36,14.23,46.06,1015.64,2052.03,3205.12,2891.01,3278.01,600.30,605.94,27.56,0000 0000 0000 0000 000000
2017-10-29 02:53:29,0.00,0.87,0.00,18.01,21.32,24.38,14.12,46.02,1015.65,2052.02,3204.95,2890.98,3277.88,599.75,605.45,27.61,0000 0000 0000 0000 000000
2017-10-29 02:58:30,0.03,0.87,0.00,18.05,21.34,24.39,14.22,45.97,1015.65,2052.02,3204.18,2890.82,3277.14,599.93,605.56,27.66,0000 0000 0000 0000 000000
2017-10-29 03:03:31,0.02,0.87,0.00,18.07,21.34,24.41,14.15,45.99,1015.74,2052.00,3203.91,2890.11,3276.98,600.34,605.86,27.71,0000 0000 0000 0000 000000
2017-10-29 03:08:33,0.03,0.87,0.00,18.12,21.36,24.40,14.11,45.94,1015.90,2052.00,3203.13,2890.00,3276.36,599.87,605.42,27.76,0000 0000 0000 0000 000000
2017-10-29 03:13:34,0.01,0.87,0.00,18.13,21.37,24.41,14.15,46.05,1016.09,2052.00,3202.73,2889.79,3275.99,599.96,605.69,27.81,0000 0000 0000 0000 000000
2017-10-29 03:18:35,0.04,0.88,0.00,18.15,21.39,24.43,14.15,46.02,1016.05,2052.00,3202.04,2889.09,3275.59,599.77,605.45,27.86,0000 0000 0000 0000 000000
2017-10-29 03:23:37,0.01,0.88,0.00,18.19,21.40,24.47,14.11,46.05,1015.88,2051.99,3201.69,2889.00,3275.02,600.01,605.45,27.91,0000 0000 0000 0000 000000
2017-10-29 03:28:38,0.02,0.88,0.00,18.23,21.42,24.48,14.14,46.03,1015.89,2051.98,3201.01,2888.75,3274.74,600.00,605.32,27.96,0000 0000 0000 0000 000000
2017-10-29 03:33:39,0.03,0.88,0.00,18.26,21.44,24.50,14.22,46.08,1015.81,2051.98,3200.45,2888.12,3274.06,600.18,605.36,28.01,0000 0000 0000 0000 000000
2017-10-29 03:38:40,0.00,0.88,0.00,18.29,21.45,24.50,14.08,46.02,1015.78,2051.96,3199.94,2888.00,3273.87,600.04,605.25,28.06,0000 0000 0000 0000 000000
2017-10-29 03:43:41,0.02,0.88,0.00,18.28,21.47,24.53,14.17,46.13,1015.98,2051.84,3199.16,2887.77,3273.09,600.13,605.43,28.11,0000 0000 0000 0000 000000
2017-10-29 03:48:43,0.03,0.88,0.00,18.30,21.48,24.54,14.14,46.10,1015.96,2051.82,3198.98,2887.13,3272.99,599.96,605.28,28.16,0000 0000 0000 0000 000000
2017-10-29 03:53:44,0.01,0.88,0.00,18.31,21.49,24.57,14.08,46.12,1016.05,2051.59,3198.35,2887.00,3272.46,599.99,605.26,28.21,0000 0000 0000 0000 000000
2017-10-29 03:58:45,-0.01,0.88,0.00,18.33,21.51,24.57,14.23,46.16,1016.11,2051.51,3198.00,2886.99,3272.01,600.11,605.39,28.26,0000 0000 0000 0000 000000
2017-10-29 04:03:47,0.01,0.88,0.00,18.35,21.52,24.59,14.20,46.11,1016.12,2051.18,3197.23,2886.30,3271.69,600.11,605.36,28.31,0000 0000 0000 0000 000000
2017-10-29 04:08:48,0.01,0.88,0.00,18.33,21.54,24.62,14.17,46.00,1016.13,2051.03,3196.73,2886.01,3271.03,600.11,605.32,28.36,0000 0000 0000 0000 000000
2017-10-29 04:13:49,0.02,0.89,0.00,18.32,21.54,24.65,14.09,45.84,1016.13,2051.01,3196.03,2885.87,3270.80,600.08,605.40,28.41,0000 0000 0000 0000 000000
2017-10-29 04:18:51,0.04,0.89,0.00,18.34,21.56,24.64,14.16,45.92,1016.13,2051.00,3195.52,2885.16,3270.07,600.02,605.34,28.46,0000 0000 0000 0000 000000
2017-10-29 04:23:52,0.00,0.89,0.00,18.35,21.57,24.66,14.12,46.00,1016.13,2051.00,3195.00,2885.00,3269.95,599.60,604.89,28.51,0000 0000 0000 0000 000000
2017-10-29 04:28:53,0.03,0.89,0.00,18.36,21.59,24.68,14.17,46.17,1016.14,2051.00,3194.45,2884.92,3269.20,599.91,605.04,28.56,0000 0000 0000 0000 000000
2017-10-29 04:33:55,0.02,0.89,0.00,18.38,21.60,24.70,14.19,46.16,1016.14,2051.00,3194.00,2884.28,3268.99,600.08,605.34,28.61,0000 0000 0000 0000 000000
2017-10-29 04:38:56,0.02,0.89,0.00,18.39,21.62,24.69,14.13,46.08,1016.16,2051.00,3193.42,2884.00,3268.52,599.95,605.15,28.66,0000 0000 0000 0000 000000
2017-10-29 04:43:57,0.00,0.89,0.00,18.40,21.63,24.72,14.19,46.08,1016.14,2050.99,3192.99,2883.98,3268.01,600.16,605.33,28.71,0000 0000 0000 0000 000000
2017-10-29 04:48:59,0.05,0.89,0.00,18.40,21.64,24.72,14.21,46.12,1016.15,2050.99,3192.24,2883.26,3267.72,600.00,605.14,28.76,0000 0000 0000 0000 000000
2017-10-29 04:54:00,0.01,0.90,0.00,18.42,21.66,24.74,14.12,46.07,1016.14,2050.98,3191.87,2883.00,3267.05,600.10,605.31,28.81,0000 0000 0000 0000 000000
2017-10-29 04:59:01,0.01,0.90,0.00,18.40,21.67,24.80,14.18,46.17,1016.15,2050.96,3191.09,2882.96,3266.91,600.19,605.31,28.86,0000 0000 0000 0000 000000
2017-10-29 05:04:02,0.03,0.90,0.00,18.42,21.69,24.77,14.13,46.15,1016.15,2050.96,3190.89,2882.45,3266.20,599.97,605.16,28.91,0000 0000 0000 0000 000000
2017-10-29 05:09:04,0.01,0.90,0.00,18.42,21.69,24.84,14.16,46.25,1016.14,2050.87,3190.08,2882.02,3265.98,600.06,605.17,28.96,0000 0000 0000 0000 000000
2017-10-29 05:14:05,-0.00,0.90,0.00,18.41,21.72,24.78,14.21,46.29,1016.15,2050.61,3189.63,2881.95,3265.39,600.01,605.11,29.01,0000 0000 0000 0000 000000
2017-10-29 05:19:06,0.01,0.90,0.00,18.43,21.72,24.84,14.14,46.20,1016.19,2050.42,3189.02,2881.35,3265.00,599.65,604.77,29.06,0000 0000 0000 0000 000000
2017-10-29 05:24:08,0.01,0.90,0.00,18.43,21.73,24.80,14.16,46.16,1016.17,2050.20,3188.45,2881.01,3264.57,600.21,605.39,29.11,0000 0000 0000 0000 000000
2017-10-29 05:29:09,0.00,0.90,0.00,18.45,21.74,24.81,14.14,46.25,1016.14,2050.13,3188.00,2880.98,3264.03,600.33,605.34,29.16,0000 0000 0000 0000 000000
2017-10-29 05:34:10,0.02,0.90,0.00,18.45,21.75,24.84,14.14,46.14,1016.16,2050.08,3187.51,2880.68,3263.98,599.85,604.84,29.21,0000 0000 0000 0000 000000
2017-10-29 05:39:11,0.03,0.90,0.00,18.45,21.76,24.87,14.19,46.27,1016.14,2050.08,3187.01,2880.10,3263.48,600.25,605.17,29.26,0000 0000 0000 0000 000000
2017-10-29 05:44:12,0.01,0.90,0.00,18.47,21.77,24.88,14.18,46.27,1016.14,2050.03,3186.47,2880.00,3263.01,600.39,605.34,29.31,0000 0000 0000 0000 000000
2017-10-29 05:49:13,0.00,0.90,0.00,18.45,21.77,24.85,14.17,46.27,1016.13,2050.03,3186.01,2879.99,3262.99,600.04,605.03,29.37,0000 0000 0000 0000 000000
2017-10-29 05:54:15,0.04,0.91,0.00,18.45,21.77,24.86,14.13,46.20,1016.14,2050.03,3185.56,2879.57,3262.55,599.97,605.02,29.42,0000 0000 0000 0000 000000
2017-10-29 05:59:16,0.01,0.91,0.00,18.44,21.77,24.89,14.09,46.08,1016.22,2050.01,3185.00,2879.03,3262.01,599.77,604.83,29.47,0000 0000 0000 0000 000000
2017-10-29 06:04:17,0.01,0.91,0.00,18.43,21.78,24.85,14.11,46.17,1016.26,2050.01,3184.44,2879.00,3261.97,600.24,605.40,29.52,0000 0000 0000 0000 000000
2017-10-29 06:09:19,0.01,0.91,0.00,18.45,21.79,24.87,14.26,46.17,1016.24,2050.01,3184.00,2878.99,3261.33,600.27,605.33,29.57,0000 0000 0000 0000 000000
2017-10-29 06:14:20,0.01,0.91,0.00,18.43,21.79,24.87,14.20,46.11,1016.46,2050.01,3183.53,2878.84,3261.01,600.18,605.55,29.62,0000 0000 0000 0000 000000
2017-10-29 06:19:21,0.02,0.91,0.00,18.43,21.79,24.87,14.05,46.11,1016.50,2050.01,3183.02,2878.19,3260.92,599.50,604.80,29.67,0000 0000 0000 0000 000000
2017-10-29 06:24:23,0.02,0.91,0.00,18.41,21.79,24.90,14.25,46.12,1016.50,2050.00,3182.72,2878.00,3260.20,600.26,605.69,29.72,0000 0000 0000 0000 000000
2017-10-29 06:29:24,0.00,0.91,0.00,18.43,21.79,24.88,14.17,46.06,1016.59,2050.00,3182.04,2877.98,3260.00,600.04,605.43,29.77,0000 0000 0000 0000 000000
2017-10-29 06:34:25,0.02,0.91,0.00,18.41,21.79,24.88,14.20,46.26,1016.62,2050.00,3181.81,2877.76,3259.85,600.46,605.95,29.82,0000 0000 0000 0000 000000
2017-10-29 06:39:26,0.03,0.92,0.00,18.40,21.79,24.87,14.20,46.27,1016.62,2050.00,3181.06,2877.09,3259.13,600.13,605.58,29.87,0000 0000 0000 0000 000000
2017-10-29 06:44:28,0.00,0.92,0.00,18.37,21.79,24.86,14.16,46.16,1016.65,2049.99,3180.89,2877.01,3259.00,600.03,605.55,29.92,0000 0000 0000 0000 000000
2017-10-29 06:49:29,0.01,0.92,0.00,18.36,21.79,24.87,14.17,46.09,1016.99,2049.99,3180.12,2877.00,3258.97,600.05,605.76,29.97,0000 0000 0000 0000 000000
2017-10-29 06:54:31,0.01,0.92,0.00,18.31,21.79,24.88,14.17,45.92,1017.08,2049.99,3179.98,2876.95,3258.31,599.85,605.67,30.02,0000 0000 0000 0000 000000
2017-10-29 06:59:31,0.01,0.92,0.00,18.32,21.79,24.85,14.04,45.92,1017.06,2049.99,3179.70,2876.68,3258.00,599.33,605.19,30.07,0000 0000 0000 0000 000000
2017-10-29 07:04:33,0.02,0.92,0.00,18.30,21.79,24.85,14.17,45.98,1017.05,2049.99,3179.02,2876.12,3257.99,600.03,605.94,30.12,0000 0000 0000 0000 000000
2017-10-29 07:09:34,0.00,0.92,0.00,18.32,21.77,24.87,14.17,45.98,1017.09,2049.99,3178.99,2876.01,3257.80,600.06,605.96,30.17,0000 0000 0000 0000 000000
2017-10-29 07:14:35,0.02,0.92,0.00,18.31,21.77,24.86,14.18,45.96,1017.09,2049.99,3178.41,2876.00,3257.25,599.78,605.80,30.22,0000 0000 0000 0000 000000
2017-10-29 07:19:37,0.00,0.92,0.00,18.30,21.77,24.86,14.18,45.92,1017.09,2049.99,3178.01,2875.99,3257.00,600.32,606.12,30.27,0000 0000 0000 0000 000000
2017-10-29 07:24:38,0.01,0.92,0.00,18.29,21.77,24.88,14.16,46.06,1017.08,2049.99,3177.71,2875.90,3256.98,599.98,605.87,30.32,0000 0000 0000 0000 000000
2017-10-29 07:29:39,0.04,0.92,0.00,18.31,21.77,24.89,14.23,46.02,1017.09,2049.99,3177.04,2875.27,3256.49,600.07,605.99,30.37,0000 0000 0000 0000 000000
2017-10-29 07:34:40,0.01,0.93,0.00,18.30,21.77,24.82,14.09,46.08,1017.09,2049.99,3176.88,2875.04,3256.06,599.92,605.86,30.42,0000 0000 0000 0000 000000
2017-10-29 07:39:42,0.01,0.93,0.00,18.30,21.77,24.85,14.21,46.00,1017.10,2049.99,3176.14,2875.00,3256.00,600.19,606.12,30.47,0000 0000 0000 0000 000000
2017-10-29 07:44:43,0.00,0.93,0.00,18.30,21.77,24.82,14.09,45.92,1017.10,2050.00,3175.98,2874.99,3255.89,599.74,605.83,30.52,0000 0000 0000 0000 000000
2017-10-29 07:49:45,0.03,0.93,0.00,18.28,21.76,24.80,14.05,45.88,1017.10,2050.00,3175.51,2874.89,3255.34,599.62,605.60,30.57,0000 0000 0000 0000 000000
2017-10-29 07:54:46,0.02,0.93,0.00,18.27,21.75,24.82,14.13,45.85,1017.10,2050.01,3175.04,2874.35,3255.02,600.02,606.12,30.62,0000 0000 0000 0000 000000
2017-10-29 07:59:47,0.00,0.93,0.00,18.28,21.75,24.83,14.21,45.86,1017.10,2050.01,3174.97,2874.05,3255.00,599.85,605.85,30.67,0000 0000 0000 0000 000000
2017-10-29 08:04:48,0.02,0.93,0.00,18.29,21.75,24.83,14.05,45.91,1017.10,2050.01,3174.22,2874.00,3254.75,599.70,605.66,30.72,0000 0000 0000 0000 000000
2017-10-29 08:09:49,0.01,0.93,0.00,18.31,21.75,24.79,14.13,45.98,1017.10,2050.01,3173.99,2873.99,3254.12,600.39,606.33,30.77,0000 0000 0000 0000 000000
2017-10-29 08:14:50,0.01,0.93,0.00,18.30,21.75,24.82,14.15,45.97,1017.10,2050.01,3173.64,2873.91,3254.00,599.83,605.80,30.82,0000 0000 0000 0000 000000
2017-10-29 08:19:52,0.02,0.93,0.00,18.29,21.74,24.84,14.18,45.97,1017.10,2050.00,3173.03,2873.42,3253.94,600.09,605.98,30.87,0000 0000 0000 0000 000000
2017-10-29 08:24:53,0.01,0.93,0.00,18.29,21.74,24.82,14.18,46.02,1017.10,2050.00,3172.89,2873.04,3253.38,600.22,606.16,30.92,0000 0000 0000 0000 000000
2017-10-29 08:29:54,0.01,0.94,0.00,18.27,21.74,24.79,14.21,46.03,1017.11,2050.01,3172.15,2873.00,3253.02,600.16,606.23,30.97,0000 0000 0000 0000 000000
2017-10-29 08:34:55,0.00,0.94,0.00,18.29,21.74,24.83,14.15,45.96,1017.14,2050.01,3172.00,2873.00,3252.99,599.80,605.85,31.02,0000 0000 0000 0000 000000
2017-10-29 08:39:57,0.01,0.94,0.00,18.27,21.74,24.78,14.14,46.02,1017.17,2050.02,3171.56,2872.96,3252.91,600.17,606.18,31.07,0000 0000 0000 0000 000000
2017-10-29 08:44:58,0.03,0.94,0.00,18.27,21.74,24.82,14.15,46.01,1017.18,2050.01,3171.02,2872.49,3252.21,600.19,606.20,31.12,0000 0000 0000 0000 000000
2017-10-29 08:49:59,0.01,0.94,0.00,18.26,21.74,24.81,14.22,45.93,1017.17,2050.01,3170.78,2872.04,3252.01,600.14,606.17,31.17,0000 0000 0000 0000 000000
2017-10-29 08:55:01,0.01,0.94,0.00,18.27,21.74,24.83,14.22,46.06,1017.20,2050.02,3170.18,2872.00,3251.99,599.92,605.96,31.22,0000 0000 0000 0000 000000
2017-10-29 09:00:02,0.00,0.94,0.00,18.26,21.74,24.80,14.18,45.98,1017.25,2050.00,3170.01,2872.00,3251.71,600.02,606.06,31.27,0000 0000 0000 0000 000000
2017-10-29 09:05:03,0.01,0.94,0.00,18.23,21.73,24.80,14.19,45.91,1017.34,2050.02,3169.82,2871.97,3251.13,600.05,606.18,31.32,0000 0000 0000 0000 000000
2017-10-29 09:10:04,0.01,0.94,0.00,18.24,21.72,24.79,14.21,45.95,1017.48,2050.01,3169.13,2871.85,3251.00,600.34,606.59,31.37,0000 0000 0000 0000 000000
2017-10-29 09:15:06,0.01,0.94,0.00,18.23,21.72,24.78,14.18,45.88,1017.42,2050.01,3169.00,2871.37,3250.98,600.00,606.32,31.42,0000 0000 0000 0000 000000
2017-10-29 09:20:07,0.01,0.94,0.00,18.22,21.72,24.79,14.22,45.87,1017.33,2050.03,3168.88,2871.07,3250.79,600.20,606.43,31.47,0000 0000 0000 0000 000000
2017-10-29 09:25:08,0.02,0.94,0.00,18.22,21.72,24.77,14.15,45.86,1017.15,2050.02,3168.14,2871.01,3250.14,600.12,606.20,31.52,0000 0000 0000 0000 000000
2017-10-29 09:30:09,0.00,0.94,0.00,18.21,21.72,24.76,14.10,45.96,1017.13,2050.06,3168.00,2871.00,3250.01,599.88,606.07,31.57,0000 0000 0000 0000 000000
2017-10-29 09:35:10,0.01,0.94,0.00,18.24,21.72,24.77,14.13,46.02,1017.12,2050.07,3167.55,2870.98,3249.98,600.11,606.19,31.62,0000 0000 0000 0000 000000
2017-10-29 09:40:11,0.02,0.95,0.00,18.22,21.70,24.76,14.27,46.10,1017.13,2050.10,3167.01,2870.78,3249.81,600.05,606.16,31.67,0000 0000 0000 0000 000000
2017-10-29 09:45:12,0.03,0.95,0.00,18.21,21.70,24.75,14.12,45.97,1017.16,2050.12,3166.72,2870.17,3249.13,599.86,606.00,31.72,0000 0000 0000 0000 000000
2017-10-29 09:50:13,0.02,0.95,0.00,18.19,21.69,24.77,14.21,46.03,1017.16,2050.16,3166.04,2870.01,3249.00,600.21,606.46,31.77,0000 0000 0000 0000 000000
2017-10-29 09:55:15,-0.01,0.95,0.00,18.18,21.69,24.76,14.17,46.05,1017.12,2050.19,3165.94,2870.00,3248.99,600.06,606.28,31.82,0000 0000 0000 0000 000000
2017-10-29 10:00:16,0.03,0.95,0.00,18.20,21.69,24.77,14.12,46.17,1017.11,2050.20,3165.20,2869.98,3248.31,599.65,605.80,31.87,0000 0000 0000 0000 000000
2017-10-29 10:05:18,0.02,0.95,0.00,18.18,21.68,24.75,14.22,46.11,1017.19,2050.16,3164.97,2869.48,3248.01,599.98,606.17,31.92,0000 0000 0000 0000 000000
2017-10-29 10:10:19,0.04,0.95,0.00,18.16,21.67,24.74,14.27,46.05,1017.23,2050.30,3164.44,2869.06,3247.99,599.96,606.27,31.97,0000 0000 0000 0000 000000
2017-10-29 10:15:20,0.02,0.95,0.00,18.13,21.67,24.77,14.23,46.06,1017.17,2050.45,3164.02,2869.01,3247.87,600.03,606.44,32.02,0000 0000 0000 0000 000000
2017-10-29 10:20:21,0.05,0.96,0.00,18.13,21.67,24.75,14.25,46.12,1017.26,2050.78,3163.95,2869.00,3247.40,600.00,606.39,32.07,0000 0000 0000 0000 000000
2017-10-29 10:25:23,0.02,0.96,0.00,18.10,21.65,24.75,14.20,46.23,1017.26,2050.83,3163.21,2868.99,3247.02,599.96,606.40,32.12,0000 0000 0000 0000 000000
2017-10-29 10:30:24,0.00,0.96,0.00,18.09,21.64,24.76,14.12,46.14,1017.15,2050.92,3163.00,2868.96,3246.99,600.13,606.61,32.17,0000 0000 0000 0000 000000
2017-10-29 10:35:26,0.01,0.96,0.00,18.07,21.63,24.74,14.20,46.16,1017.14,2050.95,3162.77,2868.80,3246.90,599.85,606.26,32.22,0000 0000 0000 0000 000000
2017-10-29 10:40:27,0.04,0.96,0.00,18.04,21.62,24.80,14.17,46.16,1017.19,2050.95,3162.05,2868.09,3246.13,599.97,606.49,32.28,0000 0000 0000 0000 000000
2017-10-29 10:45:28,0.00,0.96,0.00,18.01,21.61,24.85,14.21,46.20,1017.12,2050.96,3161.95,2868.02,3246.00,600.12,606.70,32.33,0000 0000 0000 0000 000000
2017-10-29 10:50:29,0.01,0.96,0.00,17.96,21.59,24.82,14.25,46.30,1017.12,2050.98,3161.40,2868.00,3245.99,600.21,606.99,32.38,0000 0000 0000 0000 000000
2017-10-29 10:55:31,0.00,0.96,0.00,17.92,21.58,24.89,14.30,46.29,1017.11,2050.98,3161.00,2868.00,3245.85,600.27,606.97,32.43,0000 0000 0000 0000 000000
2017-10-29 11:00:32,0.02,0.96,0.00,17.88,21.57,24.88,14.21,46.31,1017.11,2050.98,3160.71,2867.97,3245.20,599.78,606.59,32.48,0000 0000 0000 0000 000000
2017-10-29 11:05:34,0.01,0.96,0.00,17.84,21.55,24.92,14.26,46.33,1017.11,2050.99,3160.06,2867.88,3245.01,600.40,607.28,32.53,0000 0000 0000 0000 000000
2017-10-29 11:10:35,0.02,0.97,0.00,17.80,21.53,24.90,14.29,46.41,1017.12,2050.99,3159.99,2867.37,3245.00,600.09,607.21,32.58,0000 0000 0000 0000 000000
2017-10-29 11:15:36,0.01,0.97,0.00,17.76,21.51,24.93,14.18,46.34,1017.12,2050.99,3159.71,2867.05,3244.96,599.90,606.97,32.63,0000 0000 0000 0000 000000
2017-10-29 11:20:37,0.01,0.97,0.00,17.72,21.49,24.88,14.21,46.35,1017.13,2051.00,3159.12,2867.05,3244.78,600.02,607.19,32.68,0000 0000 0000 0000 000000
2017-10-29 11:25:39,0.01,0.97,0.00,17.66,21.47,24.90,14.26,46.30,1017.13,2051.01,3159.00,2867.01,3244.24,600.27,607.59,32.73,0000 0000 0000 0000 000000
2017-10-29 11:30:40,0.00,0.97,0.00,17.65,21.44,24.86,14.20,46.28,1017.12,2051.02,3158.92,2867.00,3244.02,599.65,606.95,32.78,0000 0000 0000 0000 000000
2017-10-29 11:35:41,0.02,0.97,0.00,17.60,21.42,24.84,14.21,46.24,1017.13,2051.07,3158.29,2867.00,3244.00,600.00,607.45,32.83,0000 0000 0000 0000 000000
2017-10-29 11:40:42,0.04,0.97,0.00,17.58,21.39,24.85,14.24,46.25,1017.14,2051.43,3158.01,2867.00,3244.00,600.05,607.51,32.88,0000 0000 0000 0000 000000
2017-10-29 11:45:43,0.03,0.97,0.00,17.59,21.37,24.79,14.31,46.23,1017.14,2051.66,3157.96,2866.99,3243.98,600.17,607.58,32.93,0000 0000 0000 0000 000000
2017-10-29 11:50:44,0.02,0.97,0.00,17.55,21.34,24.74,14.33,46.22,1017.15,2051.84,3157.31,2866.96,3243.64,600.35,607.90,32.98,0000 0000 0000 0000 000000
2017-10-29 11:55:45,0.02,0.97,0.00,17.54,21.32,24.67,14.23,46.15,1017.12,2051.97,3157.01,2866.89,3243.17,599.85,607.28,33.03,0000 0000 0000 0000 000000
2017-10-29 12:00:47,0.00,0.98,0.00,17.54,21.30,24.59,14.20,46.14,1017.11,2051.98,3156.99,2866.65,3243.01,600.12,607.52,33.08,0000 0000 0000 0000 000000
2017-10-29 12:05:48,0.02,0.98,0.00,17.55,21.28,24.45,14.21,46.18,1017.11,2051.99,3156.37,2866.24,3243.00,599.90,607.32,33.13,0000 0000 0000 0000 000000
2017-10-29 12:10:50,0.01,0.98,0.00,17.56,21.26,24.37,14.21,46.13,1017.11,2051.99,3156.01,2866.02,3242.92,599.99,607.53,33.18,0000 0000 0000 0000 000000
2017-10-29 12:15:51,0.01,0.98,0.00,17.57,21.24,24.34,14.15,46.10,1017.10,2051.99,3155.80,2866.00,3242.40,599.82,607.28,33.24,0000 0000 0000 0000 000000
2017-10-29 12:20:53,0.01,0.98,0.00,17.57,21.23,24.34,14.21,46.13,1017.10,2052.00,3155.11,2865.99,3242.01,599.98,607.41,33.29,0000 0000 0000 0000 000000
2017-10-29 12:25:54,0.00,0.98,0.00,17.58,21.22,24.26,14.30,46.16,1017.10,2052.00,3154.99,2865.93,3241.99,600.30,607.74,33.34,0000 0000 0000 0000 000000
2017-10-29 12:30:55,0.02,0.98,0.00,17.60,21.20,24.26,14.10,46.08,1017.08,2052.02,3154.64,2865.61,3241.76,599.65,607.06,33.39,0000 0000 0000 0000 000000
2017-10-29 12:35:57,0.02,0.98,0.00,17.62,21.19,24.22,14.11,46.06,1017.00,2052.01,3154.04,2865.14,3241.14,599.86,607.18,33.44,0000 0000 0000 0000 000000
2017-10-29 12:40:58,0.01,0.98,0.00,17.63,21.19,24.25,14.28,46.16,1016.91,2052.05,3153.98,2865.02,3241.00,600.17,607.40,33.49,0000 0000 0000 0000 000000
2017-10-29 12:45:59,0.01,0.98,0.00,17.64,21.17,24.23,14.18,46.05,1016.80,2052.04,3153.33,2864.99,3240.92,599.99,607.10,33.54,0000 0000 0000 0000 000000
2017-10-29 12:51:01,0.01,0.98,0.00,17.67,21.17,24.24,14.21,46.19,1016.81,2052.04,3153.00,2864.97,3240.39,599.79,606.87,33.59,0000 0000 0000 0000 000000
2017-10-29 12:56:02,0.02,0.98,0.00,17.68,21.17,24.21,14.16,46.13,1016.81,2052.10,3152.69,2864.89,3240.02,599.96,606.98,33.64,0000 0000 0000 0000 000000